Theta_e
326 323 320 318 317 316 314 313 311 310 309 307 307 307 307 307 306 307 306 305 305 306 306 306 306 305 305 304 304 304 304 303 302 302 301 301 300 299 296 295 294 294
323 321 319 318 316 314 313 312 311 310 308 307 307 307 306 306 306 306 305 305 305 304 305 305 305 305 305 304 304 303 303 302 302 302 301 300 299 298 295 294 294 293
322 320 319 317 316 313 312 311 310 309 307 306 306 306 306 305 305 305 304 304 304 304 304 304 304 304 304 303 303 303 302 302 301 301 300 299 299 297 295 294 294 293
321 319 318 317 315 313 311 310 308 307 306 305 305 305 305 305 305 304 304 304 303 304 304 304 304 304 303 303 302 302 302 301 301 300 300 299 298 297 295 294 294 294
320 318 316 315 313 312 310 309 307 306 305 305 304 304 304 304 304 304 303 303 303 303 303 303 303 303 303 302 302 302 301 301 300 300 299 299 298 296 295 294 295 295
317 316 314 313 312 310 309 308 307 306 305 305 304 304 303 303 303 303 303 303 303 302 303 303 303 303 302 302 302 302 301 301 300 300 299 298 297 296 295 295 295 295
315 314 313 312 310 309 308 307 306 305 305 304 304 303 303 302 302 303 303 303 303 303 303 303 303 303 303 302 302 301 301 301 300 300 299 298 297 296 296 296 296 296
313 312 311 310 309 308 307 306 305 305 304 304 303 303 302 302 301 301 302 303 303 303 303 303 303 303 303 302 302 301 301 301 300 299 298 297 297 296 296 296 296 296
312 311 310 309 308 308 307 306 305 304 303 303 302 301 301 300 300 300 301 302 303 303 303 303 303 303 302 302 302 301 301 300 300 299 298 297 297 297 296 296 296 296
311 310 309 309 308 307 306 305 304 303 303 303 302 301 300 298 296 296 298 300 302 303 303 303 303 303 302 301 301 301 300 300 300 299 298 298 297 297 296 296 296 296
310 310 309 308 307 306 305 304 303 303 303 302 302 301 298 295 294 294 296 298 301 302 303 303 303 302 302 302 301 301 300 300 299 299 299 298 297 297 296 296 296 296
310 309 309 308 307 306 305 304 303 303 302 302 302 300 296 293 293 294 295 297 300 302 303 302 302 302 302 302 301 300 300 299 299 299 299 298 297 297 297 296 296 296
310 309 308 307 307 306 305 304 303 303 302 302 301 298 294 292 293 294 295 297 300 302 302 302 302 302 302 301 300 299 299 299 299 299 298 298 298 297 297 296 296 296
309 309 307 307 306 305 305 304 303 303 302 301 299 295 293 293 294 294 295 297 300 301 302 302 302 302 301 301 300 299 299 299 299 299 298 298 298 297 297 296 296 296
309 308 307 306 306 305 304 303 303 302 302 301 298 294 292 293 294 295 296 297 299 300 301 301 301 301 301 301 300 299 299 299 299 298 298 298 298 297 296 296 296 295
308 307 307 306 305 305 304 303 302 302 302 301 298 294 292 293 294 295 296 297 299 299 300 301 301 301 301 300 300 300 299 299 299 298 297 298 297 297 296 297 296 295
307 307 306 306 305 304 303 303 302 302 301 300 296 293 293 294 295 295 296 297 298 299 299 300 300 300 300 300 300 300 299 299 299 298 297 297 297 297 296 297 296 295
307 306 306 305 305 304 303 303 302 302 300 297 293 292 293 294 294 295 296 297 297 298 299 299 299 299 299 299 299 299 299 299 298 298 297 297 297 297 297 297 296 295
306 306 305 305 305 304 303 303 302 301 298 294 292 292 293 293 294 295 295 296 297 297 298 298 298 298 298 298 299 298 298 298 298 298 298 298 297 297 297 297 296 296
306 305 305 305 304 304 303 303 302 300 295 292 292 292 292 292 293 293 294 295 296 296 297 297 297 298 298 298 298 298 297 297 297 297 297 298 298 297 297 296 296 296
305 305 305 304 304 304 303 302 301 298 293 291 291 291 291 291 291 292 292 293 293 294 295 296 296 297 297 297 297 296 295 294 294 295 297 297 297 297 297 296 296 295
305 304 304 304 304 304 303 302 300 297 293 292 292 292 291 291 290 290 291 290 291 291 292 292 293 293 294 294 293 293 292 291 291 294 296 296 297 297 296 295 295 294
305 304 304 304 304 304 303 302 300 298 296 295 295 295 295 293 291 290 290 290 290 290 290 290 290 290 290 290 290 290 290 290 291 294 296 296 296 296 295 294 294 294
304 304 304 304 304 304 303 302 301 299 299 299 299 299 299 296 292 291 291 291 291 291 290 290 290 290 290 290 289 289 290 291 292 294 295 295 295 295 294 293 294 294
304 304 304 304 303 303 303 302 301 301 301 301 301 301 301 299 294 292 293 293 293 293 292 291 290 290 290 290 290 289 290 292 293 294 294 294 294 294 294 294 294 294
304 304 304 303 303 303 303 303 302 302 301 301 301 301 301 300 295 293 295 296 296 295 294 292 292 291 290 290 290 290 291 292 293 293 293 293 293 293 293 294 294 294
Wind_Speed
21 22 23 21 20 20 19 18 16 15 13 13 15 16 16 17 17 17 18 19 18 19 19 19 19 18 19 18 18 20 21 21 22 21 21 23 23 22 22 22 23 24
21 22 22 21 21 20 19 17 15 14 14 15 17 18 18 17 17 17 18 18 19 19 19 19 19 18 18 18 18 19 20 21 22 20 21 22 22 22 21 21 22 24
22 22 22 21 21 21 19 17 16 15 16 18 18 18 18 17 17 17 17 17 18 19 19 18 19 18 18 18 17 18 19 20 21 20 21 22 21 20 20 20 22 23
22 22 22 21 21 21 19 18 18 17 18 19 18 18 18 17 17 17 17 17 18 18 18 18 18 18 18 17 17 18 19 19 19 19 20 21 19 18 18 19 22 23
22 22 22 22 22 21 19 19 19 19 19 19 19 18 17 17 16 16 17 17 17 18 18 18 18 18 17 17 17 18 19 19 18 17 19 20 18 17 17 19 21 21
22 23 23 23 22 21 20 20 19 19 19 19 18 17 16 15 15 15 16 16 17 17 18 18 18 18 17 16 17 17 17 17 16 15 17 18 17 16 16 18 19 18
23 24 24 23 22 21 21 20 19 19 20 19 18 16 14 14 14 14 15 15 16 17 17 18 17 17 16 15 17 17 16 16 15 15 16 16 15 15 15 16 16 16
23 24 24 23 22 21 20 20 20 20 20 18 17 15 13 12 12 13 14 15 16 17 17 17 17 17 16 15 16 16 16 15 14 14 15 15 14 13 13 14 14 14
23 23 23 22 21 21 21 21 21 21 19 17 15 14 11 10 10 12 14 15 16 17 16 16 16 16 15 14 14 15 15 14 13 12 13 13 13 12 12 12 12 12
23 23 22 21 21 22 22 22 22 21 18 15 14 12 10 10 10 11 14 15 16 17 16 16 15 14 14 13 13 13 13 12 11 10 11 11 11 11 10 10 10 10
24 23 22 22 23 23 23 22 21 20 17 14 13 11 9 10 11 12 14 16 17 17 16 15 14 13 13 13 12 12 11 10 9 9 8 8 9 9 9 9 8 8
25 24 23 23 23 23 22 22 21 19 16 14 11 9 9 11 12 13 14 16 17 16 15 15 14 12 12 12 12 10 9 8 8 7 6 6 6 8 8 7 6 7
26 24 23 23 23 23 22 22 21 18 16 13 10 9 10 12 13 14 14 15 16 16 15 14 13 12 11 12 11 9 7 7 7 6 5 4 4 5 6 4 4 6
26 24 23 23 23 23 23 22 21 18 15 13 10 9 10 11 13 13 14 15 16 16 15 14 13 12 11 11 10 8 6 5 5 5 4 3 2 2 3 2 2 6
27 26 25 24 23 23 23 22 21 18 15 12 9 9 10 12 13 13 14 15 16 15 14 13 12 11 10 9 8 7 6 4 3 4 4 3 3 2 1 1 0 6
27 27 27 26 25 24 23 23 21 18 15 12 10 9 11 13 14 14 14 15 15 15 14 13 12 10 9 8 7 6 5 3 3 3 4 4 4 4 3 3 1 4
28 28 28 27 26 25 24 23 21 18 15 12 11 11 12 14 14 14 14 14 15 15 14 12 11 9 8 6 5 5 3 3 3 3 3 3 3 5 6 5 2 3
29 28 28 27 27 26 25 23 21 18 16 13 13 13 14 15 14 14 14 14 14 14 13 12 11 8 7 5 4 4 2 2 3 2 2 1 1 3 6 6 4 4
30 29 29 29 28 27 26 24 22 19 16 15 15 16 16 15 15 14 13 12 12 12 12 11 9 7 5 4 3 3 2 2 3 3 3 3 3 2 4 5 4 6
30 30 30 30 29 28 27 25 23 20 18 17 17 18 17 16 15 14 13 11 10 10 10 9 8 6 4 3 4 4 4 5 5 5 5 4 3 2 3 4 4 8
30 30 30 30 30 29 28 27 24 22 21 19 18 18 17 17 16 14 13 12 10 9 9 8 7 5 4 4 5 5 5 6 6 6 5 4 3 2 2 3 4 7
31 31 31 30 30 30 29 28 27 25 23 21 19 18 17 16 16 15 14 13 12 10 9 8 7 4 3 3 3 3 4 5 4 5 5 3 3 3 2 2 4 6
31 32 31 31 31 31 30 30 29 27 24 22 19 18 16 15 15 15 14 13 13 11 10 9 8 5 3 1 1 2 2 2 2 5 5 4 4 3 2 1 3 7
32 33 32 32 31 31 31 31 30 28 25 22 20 18 16 14 13 14 14 13 13 12 10 10 9 7 5 4 4 4 3 1 2 4 6 5 4 3 2 1 4 7
33 33 33 32 31 31 31 31 30 28 25 22 20 18 16 14 13 14 14 13 12 11 10 9 8 7 6 5 5 5 3 2 3 4 5 5 3 2 1 2 5 7
33 33 33 33 32 31 30 30 29 28 26 23 20 18 17 15 15 15 14 12 11 9 7 6 6 6 6 6 5 5 2 3 4 5 5 5 3 2 2 4 6 7
Wind_Direction
169 166 165 165 164 162 159 156 151 144 138 137 135 131 129 128 128 127 122 119 118 114 114 115 114 112 107 104 103 100 98 97 94 91 86 81 77 73 75 78 76 72
167 167 167 165 162 161 158 155 150 144 139 139 138 135 133 132 131 129 125 123 120 116 116 116 113 111 107 105 104 101 100 99 96 91 85 80 76 74 77 78 73 67
169 169 168 166 163 160 155 151 146 142 141 142 142 140 138 136 133 130 128 126 123 120 118 116 114 111 108 106 104 102 102 101 98 92 85 80 75 75 79 77 71 64
169 169 168 166 164 159 153 148 145 143 144 145 146 145 142 138 135 131 129 128 126 124 121 118 115 111 109 108 105 104 104 102 98 92 85 80 74 74 79 76 70 62
168 168 167 164 161 157 152 150 148 148 149 148 147 147 144 142 139 134 131 130 128 126 124 122 118 114 111 110 108 108 107 103 98 90 84 80 73 74 79 74 68 61
166 166 165 162 159 156 153 151 152 153 152 149 147 147 146 144 142 138 135 133 130 129 127 125 122 118 116 115 113 112 110 104 98 88 82 78 74 77 78 71 64 58
164 164 162 159 157 155 153 152 154 154 153 152 149 147 148 147 143 142 142 139 134 131 129 127 126 123 121 120 118 116 112 105 97 87 80 76 76 78 77 67 60 56
163 162 160 158 155 154 154 155 156 155 154 154 150 148 151 150 147 147 149 147 141 136 133 131 128 127 125 123 120 118 115 106 96 86 81 78 78 79 76 67 58 54
161 159 158 157 156 156 157 157 157 156 157 157 152 150 151 150 151 155 157 155 148 140 138 136 132 130 128 124 123 121 117 109 97 87 83 82 81 79 76 67 58 53
161 160 159 158 157 157 157 157 157 157 159 158 153 149 147 143 148 157 159 158 151 144 140 137 134 133 130 126 124 122 119 113 102 90 86 85 80 76 74 65 55 51
163 163 162 160 158 157 157 158 159 158 159 158 154 148 140 136 141 149 155 156 151 146 142 137 135 133 131 128 126 125 122 118 111 101 93 89 80 72 68 61 55 48
164 164 163 160 160 160 159 160 160 160 159 157 154 146 136 135 136 139 146 150 147 145 142 138 137 134 132 130 128 125 123 126 126 116 105 96 80 66 60 57 55 45
165 165 164 163 163 163 162 163 162 161 159 154 150 143 136 136 135 133 138 142 143 143 140 138 138 136 132 132 130 123 122 132 138 136 132 118 84 60 58 61 53 40
168 167 165 164 165 165 165 164 162 160 157 151 145 139 134 134 135 132 134 137 139 140 138 138 140 138 135 136 134 130 130 132 137 149 162 159 121 63 65 78 47 35
169 167 164 164 166 166 166 165 162 159 155 150 144 136 131 132 134 134 133 134 136 136 136 139 141 139 140 143 143 144 147 143 135 147 173 198 206 189 156 202 12 32
169 167 165 165 167 168 167 165 161 158 155 151 145 137 133 133 134 135 135 134 133 134 136 138 140 139 143 149 154 158 163 173 166 152 171 203 220 215 221 247 269 24
171 170 167 167 168 168 167 165 162 159 157 152 144 137 134 135 136 137 136 135 135 135 135 136 136 138 144 153 162 170 182 195 190 166 147 168 217 230 234 246 256 360
171 170 168 168 168 168 168 166 163 160 156 151 143 137 135 134 135 134 134 136 138 137 135 134 134 135 142 154 167 176 193 206 198 192 169 172 279 256 241 242 248 322
170 169 169 169 170 170 169 167 164 160 155 148 141 136 133 131 130 130 130 133 136 137 136 135 135 137 146 167 191 201 226 247 242 245 250 265 307 302 249 238 256 314
170 170 170 171 171 170 169 167 165 159 152 146 140 136 132 129 127 127 127 128 133 137 138 140 142 148 163 195 222 240 258 266 264 261 260 263 282 287 237 233 277 315
171 171 170 171 172 172 171 169 165 159 151 145 139 135 130 127 125 125 124 125 128 132 138 146 154 166 194 226 246 259 271 277 266 251 245 246 246 230 213 237 291 317
172 171 170 171 173 173 172 170 167 163 156 148 140 134 129 125 124 124 123 123 123 124 129 133 139 151 187 231 262 281 288 287 260 225 212 207 194 184 196 254 308 320
174 173 171 171 173 174 174 173 171 168 164 159 153 146 138 131 128 126 124 122 119 119 120 119 117 113 108 93 41 7 332 301 236 199 189 175 164 164 185 264 311 320
176 177 175 174 175 176 177 177 176 174 173 171 168 161 152 145 140 134 129 124 119 117 115 112 109 105 96 76 54 33 17 33 147 175 178 172 168 177 199 278 310 326
179 181 181 179 178 179 180 181 180 178 178 178 177 171 162 158 156 149 142 135 129 123 118 113 106 98 88 70 52 35 29 92 125 147 156 154 157 170 181 313 320 334
182 183 184 183 182 182 182 183 183 182 181 180 179 175 170 168 168 163 157 152 148 143 134 124 109 94 78 63 49 37 48 127 138 137 131 121 106 79 18 341 336 344